SCP
0 0 0 0 0 0 0 0 0 0 0 0 0 0 0 0 0 0 0 0 0 0 0 0 0 0 0 0 0 0 0 0 0 0 0 0 0 0 0 0 0 0 0
0 0 0 0 0 0 0 0 0 0 0 0 0 0 0 0 0 0 0 0 0 0 0 0 0 0 0 0 0 0 0 0 0 0 0 0 0 0 0 0 0 0 0
0 0 0 0 0 0 0 0 0 0 0 0 0 0 0 0 0 0 0 0 0 0 0 0 0 0 0 0 0 0 0 0 0 0 0 0 0 0 0 0 0 0 0
0 0 0 0 0 0 0 0 0 0 0 0 0 0 0 0 0 0 0 0 0 0 0 0 0 0 0 0 0 0 0 0 0 0 0 0 0 0 0 0 0 0 0
0 0 0 0 0 0 0 0 0 0 0 0 0 0 0 0 0 0 0 0 0 0 0 0 0 0 0 0 0 0 0 0 0 0 0 0 0 0 0 0 0 0 0
0 0 0 0 0 0 0 0 0 0 0 0 0 0 0 0 0 0 0 0 0 0 0 0 0 0 0 0 0 0 0 0 0 0 0 0 0 0 0 0 0 0 0
0 0 0 0 0 0 0 0 0 0 0 0 0 0 0 0 0 0 0 0 0 0 0 0 0 0 0 0 0 0 0 0 0 0 0 0 0 0 0 0 0 0 0
0 0 0 0 0 0 0 0 0 0 0 0 0 0 0 0 0 0 0 0 0 0 0 0 0 0 0 0 0 0 0 0 0 0 0 0 0 0 0 0 0 0 0
0 0 0 0 0 0 0 0 0 0 0 0 0 0 0 0 0 0 0 0 0 0 0 0 0 0 0 0 0 0 0 0 0 0 0 0 0 0 0 0 0 0 0
0 0 0 0 0 0 0 0 0 0 0 0 0 0 0 0 0 0 0 0 0 0 0 0 0 0 0 0 0 0 0 0 0 0 0 0 0 0 0 0 0 0 0
0 0 0 0 0 0 0 0 0 0 0 0 0 0 0 0 0 0 0 0 0 0 0 0 0 0 0 0 0 0 0 0 0 0 0 0 0 0 1 1 1 1 1
0 0 0 0 0 0 0 0 0 0 0 0 0 0 0 0 0 0 0 0 0 0 0 0 0 0 0 0 0 0 0 0 0 0 0 0 0 1 1 1 1 1 1
0 0 0 0 0 0 0 0 0 0 0 0 0 0 0 0 0 0 0 0 0 0 0 0 0 0 0 0 0 0 0 0 0 0 0 0 1 1 1 1 1 1 1
0 0 0 0 0 0 0 0 0 0 0 0 0 0 0 0 0 0 0 0 0 0 0 0 0 0 0 0 0 0 0 0 0 0 0 0 1 1 1 1 1 1 1
0 0 0 0 0 0 0 0 0 0 0 0 0 0 0 0 0 0 0 0 0 0 0 0 0 0 0 0 0 0 0 0 0 0 0 0 0 0 0 1 1 1 1
0 0 0 0 0 0 0 0 0 0 0 0 0 0 0 0 0 0 0 0 0 0 0 0 0 0 0 0 0 0 0 0 0 0 0 0 0 0 0 0 0 0 0
0 0 0 0 0 0 0 0 0 0 0 0 0 0 0 0 0 0 0 0 0 0 0 0 0 0 0 0 0 0 0 0 0 0 0 0 0 0 0 0 0 0 0
0 0 0 0 0 0 0 0 0 0 0 0 0 0 0 0 0 0 0 0 0 0 0 0 0 0 0 0 0 0 0 0 0 0 0 0 0 0 0 0 0 0 0
0 0 0 0 0 0 0 0 0 0 0 0 0 0 0 0 0 0 0 0 0 0 0 0 0 0 0 0 0 0 0 0 0 0 0 0 0 0 0 0 0 0 0
0 0 0 0 0 0 0 0 0 0 0 0 0 0 0 0 0 0 0 0 0 0 0 0 0 0 0 0 0 0 0 0 0 0 0 0 0 0 0 0 0 0 0
0 0 0 0 0 0 0 0 0 0 0 0 0 0 0 0 0 0 0 0 0 0 0 0 0 0 0 0 0 0 0 0 0 0 0 0 0 0 0 0 0 0 0
0 0 0 0 0 0 0 0 0 0 0 0 0 0 0 0 0 0 0 0 0 0 0 0 0 0 0 0 0 0 0 0 0 0 0 0 0 0 0 0 0 0 0
0 0 0 0 0 0 0 0 0 0 0 0 0 0 0 0 0 0 0 0 0 0 0 0 0 0 0 0 0 0 0 0 0 0 0 0 0 0 0 0 0 0 0
0 0 0 0 0 0 0 0 0 0 0 0 0 0 0 0 0 0 0 0 0 0 0 0 0 0 0 0 0 0 0 0 0 0 0 0 0 0 0 0 0 0 0
0 0 0 0 0 0 0 0 0 0 0 0 0 0 0 0 0 0 0 0 0 0 0 0 0 0 0 0 0 0 0 0 0 0 0 0 0 0 0 0 0 0 0
0 0 0 0 0 0 0 0 0 0 0 0 0 0 0 0 0 0 0 0 0 0 0 0 0 0 0 0 0 0 0 0 0 0 0 0 0 0 0 0 0 0 0
Wind_Speed
2 3 2 3 3 3 3 4 4 5 5 5 4 5 5 5 4 4 3 11 14 15 16 16 16 16 15 15 15 15 16 15 15 15 14 14 14 14 13 14 14 14 14
4 4 4 4 4 4 4 4 4 4 3 3 4 4 4 4 4 4 4 7 15 16 17 17 16 16 15 15 15 15 15 15 15 15 15 14 14 14 14 15 15 15 15
6 6 5 4 4 3 4 4 4 4 4 5 5 4 3 4 4 4 4 4 6 13 16 17 17 16 16 16 15 15 15 15 16 15 15 15 15 15 16 16 16 17 17
8 6 5 5 4 3 3 4 4 4 4 5 4 4 3 3 3 3 4 4 4 5 9 16 18 17 16 16 16 16 17 17 16 16 16 16 17 17 17 17 18 18 19
8 7 6 5 4 4 4 4 5 4 4 6 5 4 3 3 1 2 3 4 3 4 4 10 16 17 17 17 17 18 18 18 18 17 17 18 18 18 19 19 19 19 20
9 8 6 6 5 5 5 4 5 5 4 4 5 6 3 3 1 1 2 2 2 3 4 5 6 10 16 17 19 20 20 19 19 18 18 19 20 20 20 21 21 21 21
9 8 7 6 5 6 5 5 3 5 5 5 4 6 5 2 2 0 1 1 1 3 6 7 7 6 6 16 19 20 20 20 20 20 20 21 21 22 22 23 23 23 23
8 8 7 6 5 5 6 6 5 3 4 5 4 3 6 7 5 3 3 2 4 5 8 10 8 7 6 5 12 20 20 20 21 21 22 23 24 24 24 24 25 25 25
9 8 8 6 6 5 5 5 5 4 3 3 3 3 3 4 5 5 5 4 4 4 5 6 8 8 9 7 7 13 19 21 22 23 24 25 26 26 26 26 26 26 26
8 8 7 7 6 5 5 5 4 3 3 2 2 2 1 3 3 6 4 3 4 6 7 8 9 9 9 7 10 17 20 21 23 25 27 27 28 28 28 28 28 28 28
7 7 7 6 6 5 5 5 4 4 2 2 1 1 2 2 2 3 7 6 6 4 5 8 9 7 7 7 6 12 21 24 26 27 28 29 29 29 29 29 30 29 29
5 7 7 6 5 4 4 4 3 3 2 1 0 1 1 1 2 3 6 10 11 6 8 8 7 6 6 6 9 20 24 26 27 28 29 30 30 31 31 31 31 31 31
4 5 5 5 4 4 4 3 3 2 1 0 1 2 2 3 3 3 6 11 12 7 5 4 4 6 8 6 8 24 24 27 28 30 31 32 32 32 32 32 33 33 33
5 5 5 5 4 4 3 3 2 1 1 2 3 3 3 3 3 3 4 8 13 7 4 6 5 6 5 5 13 25 15 27 30 32 33 34 33 33 33 33 34 34 34
5 6 5 5 4 3 3 2 1 2 2 3 4 4 4 4 4 4 4 5 7 14 15 5 3 3 5 7 15 11 10 23 31 33 33 34 33 33 34 35 35 35 35
6 5 5 4 3 3 2 2 2 3 3 3 3 4 5 4 4 4 5 5 7 11 16 8 9 9 9 11 18 14 12 29 30 31 32 33 33 35 36 36 36 36 36
6 5 4 3 2 2 2 2 3 4 4 5 5 5 6 6 5 5 5 6 7 9 16 16 12 10 10 11 12 10 11 12 13 28 31 33 35 36 36 36 36 35 35
5 5 4 3 2 2 3 3 4 4 5 6 6 6 7 6 6 6 6 8 8 9 13 19 16 13 13 12 12 11 12 13 10 23 31 33 34 34 34 35 35 34 34
5 4 3 3 2 3 3 3 4 5 5 5 6 6 7 7 8 7 8 9 9 10 9 14 17 14 13 11 12 12 12 10 13 18 25 28 30 33 34 34 35 35 35
5 4 2 2 2 3 4 5 5 5 5 5 5 6 7 8 9 10 9 9 9 10 10 12 14 13 13 11 10 12 14 9 11 13 19 22 26 31 32 34 34 34 34
4 3 2 2 3 3 4 6 4 4 4 5 6 7 8 13 16 14 12 10 10 11 12 12 13 14 13 13 13 13 16 15 12 10 12 12 12 12 15 23 29 31 33
3 2 2 3 4 4 10 14 10 4 4 5 7 7 9 11 15 21 25 24 22 17 15 13 13 14 16 15 14 15 16 17 16 7 9 14 12 14 13 11 24 32 33
2 2 2 3 4 7 12 14 15 7 4 6 8 8 9 11 17 11 18 23 19 22 23 16 15 15 17 16 17 18 16 17 17 14 14 17 12 14 13 16 30 33 34
2 1 3 4 4 7 13 15 17 7 5 7 8 9 10 10 12 17 15 13 10 11 16 13 11 14 15 14 14 16 17 17 16 12 11 16 15 15 15 14 26 33 34
2 2 3 4 5 7 13 16 17 5 6 8 8 8 11 10 20 26 16 13 13 12 17 22 23 23 27 27 21 13 12 13 16 14 9 10 12 15 16 15 17 26 28
2 3 4 4 5 6 12 17 18 5 6 7 6 7 14 19 24 26 14 10 13 14 14 13 15 18 15 16 21 12 11 12 14 12 5 6 10 12 13 8 7 11 16
Wind_Direction
136 108 86 71 60 59 63 59 56 50 39 29 25 28 23 10 5 9 14 40 47 45 43 38 31 26 21 19 18 17 14 10 6 2 357 353 348 343 336 331 325 318 311
130 112 94 76 61 58 62 64 61 52 38 21 18 18 22 11 13 27 36 42 49 46 41 34 26 20 14 10 7 7 6 1 355 349 344 340 335 330 325 319 315 312 309
121 110 97 80 65 63 67 62 55 47 33 18 7 9 22 18 22 37 45 48 45 41 37 31 21 13 7 1 356 352 349 346 341 336 332 328 324 320 315 311 307 303 300
115 109 99 85 72 64 63 61 38 38 24 9 349 344 8 8 19 41 48 55 56 46 29 26 17 7 359 352 347 343 338 334 330 327 324 321 317 314 310 306 303 300 296
110 105 96 87 78 66 51 55 47 40 23 358 336 331 353 350 0 51 52 58 62 55 33 19 14 360 351 345 341 335 330 325 322 318 317 315 312 309 306 303 299 297 294
105 101 93 83 77 70 53 48 55 43 30 350 333 329 332 341 2 65 46 48 48 39 30 20 8 347 341 336 334 328 324 320 316 313 312 311 309 306 302 299 296 294 291
101 97 96 84 75 74 64 49 52 40 22 1 3 339 334 353 353 117 21 334 358 9 17 8 348 329 319 326 325 321 320 316 312 310 309 308 306 302 299 296 293 290 288
99 96 95 90 82 81 65 50 49 51 24 25 34 5 345 338 340 342 341 347 5 10 3 344 322 311 306 302 306 316 315 312 309 308 307 306 303 300 297 293 290 288 285
92 95 93 91 81 80 75 63 56 66 34 13 41 60 16 309 309 312 318 338 354 355 334 314 304 303 302 300 299 306 308 309 306 305 305 303 301 298 294 291 289 286 283
91 90 89 87 82 77 75 66 65 67 71 30 4 32 223 235 291 309 303 309 324 317 301 307 303 294 291 291 292 305 307 303 304 304 303 302 299 296 293 291 288 286 284
83 86 85 83 79 76 76 69 65 62 78 90 20 328 318 295 243 270 293 305 304 283 291 293 290 287 285 282 282 293 303 306 304 302 301 299 297 295 293 291 290 288 286
82 80 82 79 78 75 72 69 66 63 68 85 157 237 237 268 284 276 286 304 305 297 287 282 280 281 285 286 293 309 309 305 303 301 299 297 296 294 294 293 292 290 287
92 83 84 81 75 73 74 68 57 36 25 309 272 251 233 233 238 258 289 304 302 293 268 258 258 278 289 296 306 308 305 304 304 302 299 297 296 295 294 293 291 289 287
107 102 93 85 77 68 64 53 35 334 295 279 272 262 252 251 243 252 275 304 310 298 246 259 261 255 272 287 292 300 299 300 300 299 297 296 295 294 293 292 290 288 286
108 100 92 83 69 56 42 23 333 304 296 273 269 266 255 253 250 253 258 268 291 304 308 280 261 259 271 278 285 288 281 291 296 295 295 295 294 293 292 291 289 287 285
100 99 87 78 60 38 12 347 308 300 302 290 274 270 266 258 256 254 254 257 258 279 293 292 295 291 282 290 295 292 284 292 295 294 293 292 292 292 291 289 288 286 284
101 95 89 75 51 21 351 335 313 307 307 299 295 284 275 271 266 262 258 259 262 267 285 296 295 295 288 285 289 278 278 275 279 288 291 291 290 290 289 289 288 287 284
98 95 88 71 34 2 339 326 312 311 301 297 295 293 287 289 277 271 267 266 269 266 278 293 301 302 297 292 289 285 292 290 282 287 290 291 291 291 290 289 288 286 284
97 88 80 58 13 341 324 307 295 294 293 291 294 294 289 287 283 278 275 275 274 279 278 288 295 297 296 296 297 295 290 284 285 289 292 291 291 290 289 288 288 287 286
100 88 72 38 354 324 305 295 293 292 293 295 294 288 284 282 280 281 283 277 285 290 288 287 291 296 298 299 300 304 302 290 288 291 289 288 288 290 289 289 288 286 285
95 83 55 14 342 313 301 305 295 290 292 293 290 284 284 297 301 302 304 304 300 295 295 296 299 303 305 309 307 305 302 301 291 282 285 286 285 281 281 282 283 281 280
82 57 26 350 332 322 319 324 325 295 284 289 294 291 289 295 299 310 311 307 303 302 304 303 304 303 303 303 303 302 303 303 301 294 288 293 287 284 281 275 278 280 279
66 25 350 333 317 310 323 326 323 321 292 287 289 292 300 302 310 296 296 300 303 304 305 302 298 297 298 301 302 303 301 300 298 302 301 294 292 287 284 281 285 283 282
42 355 326 320 314 315 329 325 321 323 289 281 280 283 288 291 295 303 302 306 299 297 298 297 287 289 294 297 298 300 300 299 295 291 290 291 295 291 290 285 284 282 281
9 328 312 318 317 314 325 323 325 300 285 285 284 287 299 297 303 312 315 308 305 303 307 305 304 305 306 308 307 306 305 304 302 301 293 282 290 298 291 282 279 282 283
334 321 317 314 307 301 314 325 325 298 292 293 288 284 304 311 312 318 318 312 312 309 310 313 311 307 302 299 305 304 301 299 301 301 285 283 296 311 304 279 271 284 286